{"data":{"norad_id":66931,"epoch":"2026-09-20T11:12:21.436128Z","epoch_age_seconds":86888,"freshness":"FRESH","line1":"1 66931U 25286G   26263.46691477 -.00001961  00000+0 -46957-4 0  9994","line2":"2 66931  53.1595 169.7908 0001138  82.0339 278.0793 15.34380361 45293","mean_motion":15.34380361,"eccentricity":0.0001138,"inclination_deg":53.1595,"raan_deg":169.7908,"arg_perigee_deg":82.0339,"mean_anomaly_deg":278.0793,"bstar":-4.6957e-5,"rev_number":4529,"period_min":93.848959267278,"perigee_km":461.98311781437,"apogee_km":463.54010633848,"semimajor_km":6840.8986120764,"source":"CELESTRAK","updated_at":"2026-09-21T09:00:36.056801Z"}}